TimeEDT,TemperatureF,Dew PointF,Humidity,Sea Level PressureIn,VisibilityMPH,Wind Direction,Wind SpeedMPH,Gust SpeedMPH,PrecipitationIn,Events,Conditions,WindDirDegrees,DateUTC
12:53 AM,69.1,64.0,84,29.98,10.0,North,3.5,-,N/A,,Clear,350,2013-03-20 04:53:00
1:53 AM,69.1,66.9,93,29.97,10.0,NNW,4.6,-,N/A,,Clear,340,2013-03-20 05:53:00
2:53 AM,69.1,66.9,93,29.95,10.0,NNW,8.1,-,N/A,,Clear,340,2013-03-20 06:53:00
3:53 AM,69.1,66.9,93,29.93,10.0,NNW,4.6,-,0.01,,Clear,340,2013-03-20 07:53:00
4:53 AM,68.0,64.9,90,29.92,10.0,North,4.6,-,N/A,,Clear,350,2013-03-20 08:53:00
5:53 AM,66.9,64.0,90,29.93,10.0,NNW,3.5,-,N/A,,Clear,340,2013-03-20 09:53:00
6:53 AM,66.0,64.0,93,29.94,10.0,North,5.8,-,N/A,,Clear,360,2013-03-20 10:53:00
7:53 AM,66.0,62.1,87,29.95,10.0,ENE,3.5,-,N/A,,Clear,60,2013-03-20 11:53:00
8:53 AM,71.1,66.0,84,29.98,10.0,ENE,3.5,-,N/A,,Clear,60,2013-03-20 12:53:00
9:53 AM,73.0,66.0,79,29.99,10.0,East,5.8,-,N/A,,Clear,80,2013-03-20 13:53:00
10:53 AM,75.0,64.9,71,30.00,10.0,NNE,8.1,-,N/A,,Clear,20,2013-03-20 14:53:00
11:53 AM,75.9,64.9,69,29.99,10.0,Variable,5.8,-,N/A,,Partly Cloudy,0,2013-03-20 15:53:00
12:53 PM,78.1,64.0,62,29.96,10.0,SE,9.2,-,N/A,,Partly Cloudy,130,2013-03-20 16:53:00
1:53 PM,77.0,66.0,69,29.94,10.0,SE,6.9,-,N/A,,Partly Cloudy,130,2013-03-20 17:53:00
2:53 PM,78.1,64.9,64,29.92,10.0,Variable,4.6,-,N/A,,Partly Cloudy,0,2013-03-20 18:53:00
3:53 PM,75.9,64.9,69,29.90,10.0,SSW,6.9,-,N/A,,Partly Cloudy,210,2013-03-20 19:53:00
4:53 PM,75.9,64.0,67,29.88,10.0,SSW,5.8,-,N/A,,Partly Cloudy,200,2013-03-20 20:53:00
5:53 PM,75.0,66.0,73,29.86,10.0,SSW,9.2,-,N/A,,Clear,210,2013-03-20 21:53:00
6:53 PM,73.9,66.0,76,29.87,10.0,SW,6.9,-,N/A,,Clear,220,2013-03-20 22:53:00
7:53 PM,73.0,66.0,79,29.88,10.0,WNW,5.8,-,N/A,,Partly Cloudy,290,2013-03-20 23:53:00
8:53 PM,72.0,66.9,84,29.92,10.0,WNW,5.8,-,N/A,,Scattered Clouds,300,2013-03-21 00:53:00
9:53 PM,72.0,66.9,84,29.96,10.0,NNW,8.1,-,N/A,,Scattered Clouds,330,2013-03-21 01:53:00
10:53 PM,72.0,66.0,81,29.97,10.0,NNW,18.4,27.6,N/A,,Mostly Cloudy,330,2013-03-21 02:53:00
11:05 PM,71.6,66.2,83,29.97,10.0,NNW,20.7,33.4,N/A,,Mostly Cloudy,340,2013-03-21 03:05:00
11:12 PM,69.8,66.2,88,29.96,10.0,NNW,17.3,31.1,N/A,,Scattered Clouds,330,2013-03-21 03:12:00
11:53 PM,69.1,63.0,81,29.91,10.0,SSW,5.8,-,N/A,,Partly Cloudy,210,2013-03-21 03:53:00